sat.trackr.live / text

‹ back to catalog

STARLINK-37888

NORAD 69535 · 2026-133AD

PAYLOAD ACTIVE UNKNOWN

§ Identity

Operator
Country
US
Launch date
2026-06-12
Launch site
AFETR
Launch vehicle
Mass (kg)
RCS (m²)

Purposes: comms

External: N2YO · Heavens-Above · Gunter

§ Orbital elements

Epoch: 2026-09-20T04:38:58.831872Z

Period
93.85 min
Inclination
53.1582°
Eccentricity
0.0001092
Mean motion
15.34384352 rev/d
Perigee alt
462.0 km
Apogee alt
463.5 km
Semi-major
6,840.9 km
B*
4.3616e-4
RAAN
231.3641°
Arg perigee
90.7601°
Mean anomaly
269.3527°
Rev number
1,670

§ Raw data

STARLINK-378881 69535U 26133AD  26263.19373648  .00014381  00000+0  43616-3 0  99922 69535  53.1582 231.3641 0001092  90.7601 269.3527 15.34384352 16705

JSON: /api/v1/satellites/69535 · /tle

For live sub-satellite position, see the globe view (requires WebGL).

§ Visibility from observer

Set your observer location to see the next 7 days of passes ≥ 10°. The values pass through the URL so the page stays shareable.

No JS? Fill the form by hand. The geolocation button needs JavaScript.